Regional Weather Roundup
Issued by NWS

Home | Current Version | Previous Version | Graphics & Text | Print | Product List | Glossary Off
Versions: 1 2 3 4 5 6 7 8 9 10 11 12 13 14 15 16 17 18 19 20 21 22 23 24 25 26 27 28 29 30 31 32 33 34 35 36 37 38 39 40 41 42 43 44 45 46 47 48 49 50

000
ASUS43 KTOP 280959
RWRKS

WEATHER ROUNDUP FOR KANSAS
NATIONAL WEATHER SERVICE GOODLAND KS
400 AM CST WED JAN 28 2015

NOTE:  "FAIR" INDICATES FEW OR NO CLOUDS BELOW 12,000 FEET WITH NO
SIGNIFICANT WEATHER AND/OR OBSTRUCTIONS TO VISIBILITY.

KSZ001>006-013>018-027>032-041>047-281100-
NORTHWEST KANSAS

CITY           SKY/WX    TMP DP  RH WIND       PRES   REMARKS
GOODLAND       PTCLDY    37  30  75 NW13      29.86F WCI  29
HAYS           CLEAR     43  28  56 S6        29.86F
HILL CITY      CLEAR     41  30  65 CALM      29.83F
RUSSELL        CLEAR     41  32  70 SW9       29.84F
$$

KSZ061>065-074>080-084>089-281100-
SOUTHWEST KANSAS

CITY           SKY/WX    TMP DP  RH WIND       PRES   REMARKS
DODGE CITY     CLEAR     47  32  56 SW15G24   29.90F
ELKHART          N/A     45  33  63 W8          N/A
GARDEN CITY    CLEAR     38  33  82 S10       29.88F WCI  31
LIBERAL        CLEAR     39  30  70 S10       29.93F WCI  32
$$

KSZ066>073-081>083-090>101-281100-
SOUTHEAST KANSAS

CITY           SKY/WX    TMP DP  RH WIND       PRES   REMARKS
CHANUTE        CLEAR     40  33  76 SE8       29.98F
COFFEYVILLE    CLEAR     42  34  73 S6        30.00F
HUTCHINSON     CLEAR     37  30  75 SE5       29.91F
MEDICINE LODGE   N/A     46  34  62 SE5       29.92F
NEWTON         CLEAR     52  34  50 S15       29.93F
PARSONS        CLEAR     48  36  63 S6        30.00F
WICHITA INTL   CLEAR     43  34  70 S6        29.93F
WICHITA JABRA  CLEAR     45  35  68 S7        29.93F
WINFIELD       CLEAR     47  31  53 S7        29.97F
$$

KSZ007>012-019>026-033>040-048>060-102>105-281100-
NORTHEAST KANSAS

CITY           SKY/WX    TMP DP  RH WIND       PRES   REMARKS
CONCORDIA      CLEAR     37  32  82 E3        29.85F
EMPORIA        CLEAR     40  33  76 S12       29.93F WCI  33
LAWRENCE       CLEAR     33  27  78 SE8       29.96F
MANHATTAN      CLEAR     33  30  88 CALM      29.90F
OLATHE IND     CLEAR     43  30  60 S8        29.97F
OLATHE EXE     CLEAR     40  30  67 S13       29.97F WCI  32
SALINA         CLEAR     41  32  70 S9        29.88F
TOPEKA BILLARD CLEAR     39  28  64 SE7       29.94F
TOPEKA FORBES  CLEAR     38  28  67 SE8       29.93F
$$


USA.gov is the U.S. government's official web portal to all federal, state and local government web resources and services.